Theta_e
347 346 345 344 342 341 341 341 340 339 341 344 346 348 349 349 349 348 347 347 347 346 344 344 343 343 342 342 342 344 344 345 344 345 344 334 328 329 330 331 331 331 331 331 331 332 331 331 334 334 333 334 334 335 337 339 342 344 345 345 346 346 346 347 348 349 350 352 352 352 352 352 352 351 350 349 350 351 351 350 348 344 342 341 341
344 344 344 343 342 341 341 340 340 341 343 346 347 348 349 348 348 347 347 347 346 346 344 343 342 341 342 341 341 341 342 343 343 345 346 336 327 326 327 328 328 328 327 328 328 328 329 329 330 330 330 332 336 340 344 346 347 347 347 346 346 347 346 346 345 346 349 350 349 349 350 350 350 349 348 348 350 349 347 343 337 331 328 328 330
346 345 345 345 344 342 341 341 341 343 345 347 347 348 348 349 348 347 347 348 348 347 345 343 343 342 341 340 340 341 341 341 342 344 346 339 327 323 325 325 325 326 325 325 325 326 326 326 327 329 334 339 343 347 348 348 347 347 346 346 346 346 345 344 343 344 345 345 345 344 344 345 345 345 346 347 347 345 343 338 331 327 326 325 325
348 346 345 345 345 344 343 343 343 345 347 348 349 349 350 351 350 349 349 350 349 348 347 346 344 342 341 340 339 341 341 340 341 343 345 342 330 323 324 325 325 325 324 325 325 325 325 326 330 336 342 346 348 348 348 347 347 346 346 346 345 344 343 343 343 343 343 344 343 343 342 342 342 343 344 344 343 343 343 340 337 336 335 334 332
348 346 345 346 346 347 347 347 347 347 349 349 349 350 350 352 351 351 351 350 349 347 347 346 344 342 342 341 340 341 342 341 341 342 344 342 333 326 328 332 334 333 329 326 326 326 327 331 337 342 346 348 348 348 347 347 346 346 346 344 343 343 344 345 345 346 346 347 346 346 345 344 344 343 343 342 342 343 343 343 344 345 345 345 344
347 345 346 347 348 348 348 348 348 349 350 350 350 350 350 351 351 352 351 350 350 348 346 345 344 343 342 342 342 342 344 343 342 342 343 343 338 332 333 338 340 340 337 330 327 330 333 337 342 345 348 348 348 347 347 346 345 346 345 343 343 345 347 348 348 349 349 349 349 349 347 346 346 346 344 342 342 344 345 345 346 347 347 347 348
347 347 347 347 348 348 348 348 349 350 352 352 352 351 351 351 351 350 350 350 350 349 347 344 343 343 343 342 341 341 343 345 343 342 343 344 343 340 339 341 340 341 341 335 332 336 338 341 344 346 347 347 347 347 347 346 344 345 345 344 346 348 349 350 350 351 351 351 351 351 350 349 348 348 347 344 343 344 345 345 345 346 347 348 348
348 348 348 348 347 348 349 350 350 351 352 352 351 350 350 351 350 350 351 350 349 348 347 344 342 343 342 341 341 341 343 344 342 342 343 344 344 343 344 342 341 345 347 343 339 340 341 343 345 346 346 346 347 347 347 347 346 345 345 346 347 348 349 350 351 352 352 352 352 352 351 351 350 350 350 348 346 346 345 345 345 346 346 348 348
349 350 349 348 347 348 351 351 351 352 352 351 349 350 350 350 350 351 351 350 348 348 347 345 343 342 341 340 342 342 342 342 340 341 342 344 343 342 343 343 343 346 349 348 344 342 344 345 345 346 347 348 349 349 348 347 347 346 346 345 345 346 347 349 350 351 352 352 352 353 352 352 352 351 351 350 349 348 348 347 346 346 347 348 348
351 351 350 348 348 350 351 352 352 351 352 350 349 349 350 350 351 351 351 350 349 348 347 346 344 342 342 342 343 342 342 341 341 342 342 343 343 342 342 343 345 346 348 349 345 343 345 346 347 347 348 349 350 351 351 350 348 347 346 345 344 345 345 346 349 350 351 352 352 353 353 353 353 353 352 351 351 350 349 349 348 347 347 348 348
350 350 349 349 349 350 351 352 352 352 352 350 349 350 351 352 352 350 351 351 350 349 347 345 344 343 341 341 343 342 342 343 343 343 342 342 343 343 342 343 344 346 347 348 346 345 344 344 347 349 350 351 351 352 353 353 351 348 347 347 346 346 346 347 349 350 351 352 353 353 353 353 353 353 353 353 352 351 351 350 349 348 347 347 348
350 351 349 349 350 350 351 352 352 352 352 351 351 353 353 353 353 352 352 351 349 349 347 344 343 342 341 341 343 343 343 344 343 342 343 341 342 343 343 343 344 345 345 346 347 346 344 343 345 348 349 352 352 352 353 354 354 352 349 348 349 349 348 349 350 351 352 353 353 353 353 353 353 354 353 353 353 353 352 351 350 349 347 347 347
352 353 351 350 351 351 352 352 352 352 352 351 353 354 353 352 353 353 353 352 349 347 345 344 342 342 341 341 343 344 343 343 343 342 342 341 342 342 343 343 343 343 344 345 345 346 345 342 343 344 346 349 351 352 352 352 353 353 352 351 351 351 351 350 350 351 352 352 352 353 352 352 352 352 353 353 353 353 353 352 352 351 348 347 347
353 353 353 352 352 352 352 351 352 353 353 353 354 355 354 354 354 353 353 353 351 348 345 345 345 345 343 342 343 342 342 342 342 343 343 343 343 341 342 343 343 342 343 343 343 344 344 341 340 343 346 347 349 349 350 350 350 352 352 352 352 353 352 351 351 351 350 351 351 351 351 351 351 351 351 351 352 353 353 353 353 352 350 348 347
353 353 353 353 353 352 352 351 352 353 353 353 355 356 354 354 353 353 353 352 352 350 347 347 349 346 343 346 349 348 347 343 340 341 342 342 342 341 341 343 343 342 342 343 342 342 343 342 341 342 345 346 346 347 347 348 349 349 351 351 352 353 353 352 351 350 349 350 351 351 350 351 351 351 351 351 351 351 352 353 353 353 352 351 349
353 353 353 353 354 353 352 353 352 351 351 352 355 355 353 353 353 354 354 352 352 352 349 348 349 347 346 349 349 352 356 350 342 343 343 342 342 341 341 343 343 342 341 342 342 342 342 342 342 342 344 346 346 346 346 347 347 347 348 349 350 352 352 352 350 349 350 352 353 352 351 350 351 351 351 351 352 352 352 352 352 353 353 352 350
353 354 354 354 354 353 353 353 351 349 350 353 355 354 353 354 354 355 355 353 353 353 350 349 349 349 349 349 347 351 359 354 346 345 343 341 341 341 342 342 343 342 341 341 341 343 343 342 343 342 344 346 347 347 347 348 347 347 347 347 348 350 351 351 350 349 351 354 355 353 350 349 350 351 352 352 352 352 352 353 352 353 353 353 352
353 354 354 355 354 352 353 353 351 349 352 353 354 353 354 354 354 355 354 353 354 353 351 350 349 349 350 350 348 349 353 352 352 351 346 342 339 340 341 341 341 341 341 341 340 342 343 343 343 342 343 346 347 349 348 346 346 347 347 346 347 349 350 351 351 350 352 355 356 351 345 344 346 348 350 350 350 351 351 353 353 353 353 353 353
352 354 354 354 354 352 353 354 351 351 353 354 353 353 354 354 355 355 353 353 355 352 352 353 351 351 350 349 349 349 348 349 353 353 352 350 342 336 338 339 341 341 341 340 340 341 343 343 343 342 342 343 346 349 348 346 345 346 346 346 348 349 350 351 351 351 352 354 353 345 337 338 341 344 346 347 347 349 350 351 353 353 353 353 353
351 354 354 354 354 352 353 354 351 351 354 354 353 353 354 354 355 355 352 354 355 352 353 354 354 353 350 348 349 348 347 347 348 348 353 361 355 345 339 339 340 340 340 340 339 341 342 342 342 342 341 342 343 346 348 348 346 346 347 347 349 350 351 352 352 352 352 353 351 339 333 336 339 341 344 346 346 347 348 349 350 351 353 353 353
352 353 354 355 353 351 353 354 352 351 352 354 354 354 354 353 353 353 354 356 356 352 352 353 355 355 352 351 349 347 346 346 346 346 351 358 360 354 345 340 341 341 340 341 340 341 341 341 342 343 344 343 343 345 348 348 346 347 349 349 350 350 351 352 352 352 351 353 351 341 333 334 336 337 339 341 343 343 343 345 346 347 350 353 353
353 351 353 355 353 351 352 354 355 353 353 353 354 353 354 354 353 354 356 356 355 353 353 353 355 355 353 352 350 348 347 346 345 346 347 350 354 353 346 343 344 342 343 343 342 342 341 341 341 342 344 344 345 346 347 348 348 348 349 350 351 351 352 352 351 350 351 352 352 346 340 335 333 333 334 335 335 334 335 337 340 342 347 351 353
354 351 353 355 354 351 350 353 355 356 355 353 353 354 354 355 354 355 356 354 354 354 353 353 354 354 354 353 352 350 348 347 347 347 347 348 352 352 350 349 346 346 348 346 342 343 343 341 341 343 345 346 347 348 349 350 350 349 349 350 351 351 352 352 350 351 351 352 352 350 347 342 337 333 332 334 332 330 331 332 334 337 342 348 351
354 353 354 355 354 352 351 351 354 357 356 353 353 355 355 354 353 354 356 353 352 353 352 353 353 353 353 353 354 352 349 348 348 348 348 347 349 350 351 354 352 350 351 347 344 343 343 342 342 343 345 346 348 350 350 350 351 350 350 350 350 351 352 352 351 351 351 352 351 350 348 347 344 341 336 335 334 332 332 332 332 335 338 343 346
354 354 354 355 354 353 353 352 353 356 356 355 355 355 355 354 353 354 355 353 353 354 353 353 354 355 355 354 353 352 351 350 349 350 349 348 348 350 352 354 353 352 352 351 349 346 345 346 344 343 346 349 349 350 351 350 351 351 350 349 350 350 351 351 351 351 350 350 349 348 348 347 347 347 343 338 336 335 335 334 334 335 337 339 341
355 354 353 354 354 354 354 354 354 355 355 356 356 356 355 353 353 354 355 355 355 355 354 353 354 355 356 355 354 352 352 352 350 351 351 349 349 351 353 354 352 352 352 352 353 351 351 350 347 345 348 352 352 351 352 351 351 351 351 351 350 351 351 352 351 350 349 349 348 347 347 347 347 348 347 343 339 337 337 337 336 337 339 339 340
355 355 354 354 354 355 355 355 356 355 356 356 355 355 356 354 354 355 356 355 356 356 355 353 352 355 356 355 355 353 352 352 351 351 352 350 351 352 353 356 357 356 355 355 353 353 354 351 348 349 351 353 353 352 353 352 352 352 351 351 351 352 352 351 350 349 348 348 347 347 346 346 346 346 346 345 341 339 339 339 337 338 341 341 341
355 356 355 355 355 356 356 356 356 356 356 356 355 355 356 355 355 356 356 355 355 355 354 352 352 354 355 355 355 354 354 353 352 352 353 352 353 353 353 355 357 359 365 367 360 353 354 352 350 351 351 352 352 353 354 354 353 353 351 351 352 352 351 350 349 347 347 347 346 346 345 345 345 345 344 344 341 340 340 340 339 338 341 343 343
355 356 356 356 355 356 356 357 356 356 357 357 356 355 356 355 354 355 355 354 354 355 355 354 352 352 353 355 356 355 355 355 354 353 353 352 353 353 354 354 353 357 367 374 368 357 354 354 353 353 352 351 351 352 353 353 353 353 352 352 352 352 351 348 347 346 346 347 346 346 345 343 343 343 342 343 341 341 341 341 341 340 340 343 344
354 355 355 355 355 355 356 357 356 356 357 357 357 355 355 356 356 355 354 354 355 356 356 355 353 352 352 353 356 356 356 357 356 355 354 354 354 353 355 354 353 355 358 365 368 360 354 355 354 355 354 351 352 353 353 353 353 353 352 351 351 351 350 347 345 345 346 346 345 345 344 342 342 341 340 342 342 341 341 341 341 341 340 341 343
354 354 355 355 355 355 355 355 356 357 358 358 358 356 355 356 358 358 356 355 356 355 354 354 352 351 350 352 356 356 356 356 356 357 356 356 356 354 355 355 353 355 354 357 363 360 355 355 355 355 355 353 353 354 353 353 353 352 350 350 349 349 349 348 346 345 345 345 344 343 343 342 341 340 340 342 343 342 342 342 342 344 343 342 342
355 356 356 356 355 355 355 354 355 356 357 357 358 358 357 357 357 357 356 356 357 355 354 354 352 351 351 354 357 357 356 357 355 356 356 356 356 355 355 356 354 355 354 355 358 357 355 355 355 355 355 354 353 352 352 351 350 350 350 349 349 349 349 349 347 346 345 345 345 345 343 343 342 342 342 345 346 345 346 347 346 348 348 347 346
357 356 356 356 356 356 356 356 356 357 357 358 358 359 359 358 356 356 355 355 357 356 356 356 354 354 356 357 357 357 358 358 356 355 354 354 355 354 354 355 355 355 355 356 357 356 354 354 355 356 354 353 353 351 351 351 350 350 350 348 348 347 348 348 348 348 347 347 348 347 345 345 344 343 344 347 348 349 350 351 350 351 352 351 350
356 355 354 355 356 357 358 357 357 358 358 358 358 358 359 359 358 357 356 355 357 358 357 357 355 355 356 357 357 357 358 359 357 355 354 353 354 354 354 355 355 354 354 355 355 355 354 354 356 356 354 353 353 352 352 352 351 350 348 347 347 347 348 348 348 348 347 346 347 347 347 347 346 346 346 348 350 351 351 352 353 353 353 353 351
355 354 354 354 355 357 357 357 358 358 358 358 358 358 359 359 358 358 357 357 357 357 356 356 356 355 355 355 355 356 357 358 357 355 356 356 356 356 355 354 354 353 353 354 355 355 355 356 356 356 355 354 354 353 351 351 350 349 348 348 349 349 348 348 347 345 344 345 347 348 347 346 347 349 350 351 351 352 352 353 355 354 353 353 352
355 354 353 354 354 355 355 356 357 358 358 358 358 358 358 359 358 357 358 358 356 357 356 357 357 356 355 355 356 356 356 356 356 356 356 357 357 356 355 354 354 353 354 355 356 356 356 357 357 355 355 355 354 353 351 349 348 348 349 349 348 348 348 347 347 344 344 346 348 348 347 346 348 349 351 352 352 353 354 355 355 355 354 353 353
355 354 354 354 354 355 354 355 356 356 357 357 357 357 358 358 357 356 357 357 357 357 357 358 357 356 356 357 357 357 357 357 357 356 356 357 356 355 354 354 354 354 354 355 355 355 356 357 357 356 355 355 353 351 348 348 349 349 349 348 348 350 349 348 348 346 346 348 348 348 348 347 348 350 351 353 354 355 355 355 355 356 355 354 353
356 355 355 356 355 354 355 355 355 356 356 356 356 357 357 356 356 356 356 357 357 357 357 358 358 357 357 357 357 358 358 358 358 357 357 356 355 355 355 355 354 354 354 355 355 356 356 357 356 356 355 354 353 349 345 348 351 350 350 349 349 350 350 350 348 347 348 348 348 349 349 349 349 352 354 355 355 354 353 354 355 355 356 355 354
356 355 355 356 355 355 356 357 357 356 356 357 357 356 356 355 355 356 357 357 357 357 358 358 359 358 357 357 358 358 358 358 357 356 356 355 354 355 355 354 354 353 353 354 355 356 357 356 355 354 353 352 351 348 346 350 351 350 350 351 350 350 351 351 350 351 350 349 349 350 350 350 352 355 356 355 354 353 353 355 355 355 355 355 355
355 355 355 355 354 354 355 356 357 357 357 357 357 356 356 355 355 356 358 358 357 357 358 358 359 358 358 358 358 358 358 358 356 356 355 355 355 355 354 354 353 353 353 354 355 355 355 354 353 353 353 351 349 347 348 350 349 349 350 351 353 353 352 352 353 353 352 351 351 351 350 351 354 355 356 356 354 354 355 355 356 355 354 354 354
354 354 354 354 355 355 355 356 356 356 356 356 356 356 356 355 356 356 358 358 358 358 357 357 358 358 358 357 357 357 357 357 356 356 355 354 354 354 353 354 353 353 354 353 354 353 353 353 353 352 353 350 348 349 349 347 347 349 351 352 353 353 351 352 353 353 354 353 353 352 351 353 355 356 356 356 355 355 355 356 356 355 354 353 353
354 355 355 355 355 355 355 355 356 356 356 355 355 355 356 357 357 357 358 358 358 358 357 357 357 358 357 357 356 355 356 357 357 356 355 355 355 353 352 352 353 354 353 353 353 352 351 351 351 350 352 351 348 348 348 346 347 350 351 352 354 353 352 354 354 353 353 354 354 354 353 354 356 356 355 355 355 354 353 353 353 353 354 354 355
354 355 355 355 355 355 355 355 355 356 355 354 354 355 356 356 357 357 358 358 358 357 357 357 357 356 355 354 354 353 354 356 355 353 353 354 353 352 351 351 352 354 354 353 352 350 348 348 347 348 350 350 348 349 350 349 349 349 351 353 354 353 354 356 355 354 354 354 356 357 355 354 356 356 356 356 355 353 352 352 352 353 355 356 356
355 356 355 355 355 355 355 355 355 355 355 354 354 355 356 355 356 357 357 358 358 357 356 356 356 354 353 352 352 353 354 353 352 351 350 350 349 349 348 349 352 354 354 353 351 350 348 347 348 349 350 351 352 354 354 352 351 351 351 352 352 352 354 355 355 354 354 355 356 358 357 354 355 356 357 356 354 352 352 352 353 354 355 354 354
355 354 355 355 354 354 354 354 354 355 355 355 355 355 356 355 354 356 357 357 357 357 355 355 355 354 353 352 351 352 353 353 352 351 351 350 349 349 350 351 353 353 354 353 352 351 349 349 351 353 354 354 355 355 355 354 353 352 352 352 352 352 353 355 355 355 355 356 357 357 356 355 355 356 356 355 353 351 352 353 354 354 354 352 353
353 353 353 354 353 353 353 352 353 353 354 354 355 355 355 354 353 353 354 354 356 356 355 355 355 354 353 350 349 349 352 353 353 352 352 353 353 353 353 353 353 353 354 355 354 354 354 354 355 356 355 355 355 355 354 355 355 354 354 354 354 355 355 355 356 356 356 356 356 356 356 355 355 355 355 353 352 351 351 353 354 353 352 351 352
353 351 352 353 352 352 352 351 350 351 352 351 351 352 352 352 352 352 351 351 351 353 354 355 353 352 350 348 347 348 350 351 351 352 352 352 352 352 352 353 355 355 357 358 359 358 356 355 355 355 355 356 356 356 356 355 355 355 356 356 357 357 357 357 356 356 355 354 354 355 356 355 353 354 354 352 351 351 351 353 353 351 351 352 352
352 351 350 351 351 351 351 351 351 350 350 350 350 350 350 350 351 351 351 350 349 350 353 353 350 348 348 347 347 348 348 348 348 349 348 349 349 349 351 353 356 359 360 360 359 355 353 354 354 355 355 355 355 355 355 355 355 356 356 357 357 357 357 356 355 355 353 352 353 355 354 353 352 353 353 352 351 352 352 352 351 350 350 351 350
350 350 350 349 349 350 351 352 353 352 351 351 351 350 350 350 350 350 350 350 347 347 350 351 350 349 348 347 347 347 348 349 349 348 348 348 348 349 351 354 357 359 359 358 356 355 353 354 354 354 353 352 352 353 354 355 355 356 356 355 356 356 356 355 354 354 353 352 352 353 353 352 352 352 353 353 353 353 353 351 349 348 348 346 345
349 348 348 348 348 349 350 352 353 352 352 352 351 350 350 350 350 349 348 347 346 346 349 351 351 350 351 351 350 350 350 350 349 349 349 349 349 350 351 353 355 355 355 354 353 353 353 353 352 351 350 351 352 353 353 354 354 353 354 354 354 354 353 353 353 353 352 352 351 351 351 351 351 352 353 354 353 353 352 349 345 343 341 337 335
349 349 347 347 348 350 351 352 352 352 352 352 351 351 350 349 348 348 347 347 348 349 350 351 352 353 353 353 352 352 351 351 350 350 350 349 350 351 352 352 352 352 352 352 351 351 351 351 349 348 348 351 352 352 352 351 351 351 352 352 352 352 352 353 352 352 353 352 349 348 350 350 350 352 353 354 354 353 351 346 341 339 337 331 328
Wind_Speed
16 15 14 13 12 12 12 12 13 12 11 9 7 5 3 2 1 2 2 4 5 6 6 7 8 7 6 7 9 11 12 11 8 4 1 2 1 3 3 3 3 2 1 1 1 2 2 2 1 1 1 1 2 2 3 3 3 4 5 6 7 8 9 10 11 11 11 11 10 10 10 11 11 12 13 13 13 14 14 14 15 16 17 19 19
16 15 14 13 12 12 12 12 11 10 9 7 5 3 1 1 1 2 2 4 5 6 6 7 8 6 6 8 9 9 10 10 8 6 2 2 3 3 3 3 3 2 2 1 0 1 1 1 0 1 1 2 2 2 3 3 3 4 6 7 8 9 10 10 10 10 9 9 9 9 9 9 9 10 10 10 11 13 13 14 15 15 15 15 16
15 15 14 13 12 11 10 10 9 8 6 4 2 1 1 1 2 3 3 6 7 6 5 6 7 7 7 9 10 8 8 8 7 6 3 3 5 4 4 5 4 3 3 2 1 1 1 1 1 2 2 3 3 2 2 3 4 5 6 7 8 9 9 9 8 9 9 9 9 8 8 8 8 8 8 9 10 11 12 13 12 12 12 13 14
13 13 14 13 11 10 9 8 7 6 3 1 2 2 2 2 3 3 5 8 9 7 5 4 7 10 11 11 11 9 8 7 6 6 4 4 6 6 5 6 5 4 3 2 2 2 1 2 2 3 3 3 2 2 3 4 5 5 6 7 7 8 8 8 8 9 9 9 9 9 9 9 9 9 9 9 10 10 11 11 11 12 12 13 14
12 13 13 12 10 8 6 5 4 3 1 0 1 2 2 2 3 5 7 9 9 7 5 3 5 11 13 13 13 11 8 7 7 6 5 5 7 7 7 7 7 5 4 3 2 2 2 2 3 3 4 3 2 3 3 4 5 6 6 6 7 7 7 7 8 8 8 8 9 9 9 9 9 10 10 10 9 9 9 10 11 12 13 14 15
11 12 12 11 9 7 5 4 4 3 2 0 1 2 2 3 5 7 8 8 9 7 6 4 3 10 14 14 14 13 10 8 7 7 6 6 6 6 6 6 5 5 5 4 3 3 3 2 3 4 3 3 3 3 4 5 5 6 6 6 6 6 6 6 6 7 7 8 8 9 9 9 9 9 9 9 9 9 9 10 11 13 14 15 16
11 11 10 9 8 7 6 5 6 5 4 2 2 3 3 4 5 7 7 7 7 6 6 3 4 9 12 13 14 13 12 10 9 9 7 5 5 4 4 3 4 5 5 5 5 4 4 3 4 4 3 4 4 4 4 4 4 5 5 5 4 4 5 5 6 6 7 7 8 8 9 9 8 8 9 8 9 9 10 11 11 13 14 16 17
10 8 8 8 8 8 7 7 7 6 4 4 4 4 4 5 5 6 7 7 6 6 5 1 4 8 10 10 11 11 11 11 11 11 8 5 4 3 3 3 5 5 4 5 5 5 5 5 5 4 4 4 4 4 4 4 3 3 3 3 4 4 5 5 6 6 7 7 8 8 9 9 9 9 8 8 9 9 10 11 11 13 14 16 18
8 8 9 9 8 8 7 7 7 5 5 4 4 4 4 5 4 5 6 6 6 6 5 2 1 7 11 8 6 8 10 10 11 11 9 7 5 4 4 4 5 4 3 3 4 5 4 4 4 4 4 4 4 4 3 4 4 3 4 4 5 5 6 6 6 7 8 8 8 8 8 9 9 9 9 9 9 9 10 10 11 12 14 15 17
8 9 10 9 10 11 9 7 6 5 5 4 4 4 4 4 3 3 5 5 5 7 7 4 1 7 10 8 5 6 10 10 10 11 11 10 7 5 4 4 5 5 4 3 4 4 2 1 1 1 0 1 1 2 3 4 4 4 4 4 4 5 5 6 7 7 8 8 8 8 9 9 10 10 10 10 10 10 10 11 11 12 13 14 16
8 9 9 10 13 13 11 7 6 6 5 4 4 4 3 2 3 3 4 4 5 7 8 5 4 8 9 8 6 6 9 9 8 12 14 12 9 7 5 5 5 5 5 4 4 3 2 2 2 2 2 3 3 3 3 4 5 4 4 4 4 5 5 6 7 7 8 8 9 9 9 9 10 11 12 12 12 12 12 12 12 12 13 14 15
9 8 10 12 13 12 10 7 6 6 5 4 4 3 3 1 1 2 4 4 5 7 7 4 5 12 10 8 6 5 7 8 8 10 13 13 12 10 9 7 7 7 6 5 5 5 4 4 4 3 3 3 4 5 5 6 7 6 5 5 5 5 6 7 7 8 9 9 10 10 10 10 11 11 13 13 13 13 13 13 13 12 13 13 15
10 9 11 13 12 10 8 7 7 6 4 5 5 3 3 2 2 3 6 7 8 7 5 4 6 10 8 8 8 5 5 7 8 9 11 13 14 14 13 11 10 8 7 6 6 6 6 5 5 4 4 3 3 5 6 6 7 8 8 7 7 6 7 8 9 10 11 12 12 12 12 12 12 12 13 14 15 14 14 14 14 13 13 13 14
11 10 11 12 10 9 7 8 8 6 5 5 5 3 3 3 3 3 6 8 9 8 5 3 4 5 4 4 4 4 5 7 9 10 11 13 14 17 18 16 13 9 8 8 7 7 7 7 6 5 5 4 3 3 4 6 7 8 9 9 9 8 8 9 10 12 13 14 15 15 14 14 13 13 14 15 16 16 15 14 15 14 14 14 14
12 11 11 10 9 8 8 8 8 6 5 5 4 3 3 3 4 4 6 7 7 8 7 3 2 4 4 0 1 2 3 7 10 11 12 13 13 15 18 20 16 11 9 10 8 7 7 7 7 6 5 5 4 3 4 6 7 8 9 10 11 10 10 10 11 12 14 15 16 16 16 15 15 14 14 15 16 16 16 16 15 15 14 14 14
14 12 11 11 10 10 9 8 8 7 6 5 4 3 2 3 4 4 6 7 8 9 8 4 2 2 3 1 0 1 1 5 9 9 10 13 15 16 17 19 19 15 12 11 10 8 7 8 8 8 7 6 6 5 6 7 8 9 10 11 11 11 11 11 12 12 14 15 16 17 17 16 14 14 13 14 15 16 17 16 16 15 14 15 14
15 13 12 11 11 11 9 8 8 7 6 6 4 3 3 2 3 4 5 7 8 9 8 6 4 4 1 1 2 1 2 3 4 5 4 6 12 18 19 19 20 19 16 13 11 10 9 9 8 9 8 7 8 8 8 8 9 10 10 11 11 11 10 11 12 12 14 16 17 17 17 15 13 12 12 12 14 15 15 16 16 16 14 14 14
16 14 12 10 9 10 9 8 7 8 7 6 4 4 3 2 2 3 4 5 6 8 9 8 8 8 5 3 4 2 3 2 1 1 1 4 1 11 17 18 20 22 19 15 14 12 11 11 11 11 10 9 9 10 9 8 8 9 10 11 12 11 10 11 11 12 14 16 17 18 17 15 12 11 12 12 13 13 14 15 15 16 15 14 14
17 15 12 10 9 9 9 8 7 8 8 6 5 4 3 2 1 1 3 3 4 7 10 9 8 10 10 7 7 7 5 2 1 1 2 4 6 2 10 14 18 22 20 16 16 14 12 12 12 12 13 12 10 10 10 9 9 9 10 11 11 10 10 11 12 12 14 15 17 18 17 14 13 12 12 12 13 13 14 15 16 16 16 15 14
16 15 13 11 11 10 10 9 8 8 8 6 5 4 3 2 2 0 2 2 3 5 8 9 10 11 12 9 9 10 10 8 5 2 1 1 5 5 5 8 11 16 16 15 14 14 14 14 12 12 14 15 14 13 12 10 10 10 12 12 11 10 10 11 12 13 14 15 17 17 16 14 13 13 13 13 14 15 15 16 17 17 17 16 14
15 14 13 12 11 11 11 10 9 9 8 6 6 5 3 4 4 1 1 1 2 3 4 6 9 11 13 11 10 9 9 10 10 6 4 3 3 3 3 3 3 4 6 7 7 7 8 8 6 8 10 11 12 13 12 10 10 11 12 12 11 10 10 11 12 13 13 15 16 16 16 15 14 14 15 15 16 16 17 17 18 18 17 17 15
16 15 14 13 11 11 12 10 9 9 8 7 6 5 5 5 5 2 1 0 1 2 2 4 6 9 12 12 11 11 8 8 11 9 6 5 3 3 5 5 3 4 4 2 1 0 2 3 4 5 5 5 6 9 10 8 9 11 12 11 10 10 10 11 13 13 14 15 16 16 17 16 15 15 16 17 17 17 18 18 18 17 17 16 15
17 16 15 13 11 11 12 11 9 8 8 7 6 6 7 7 5 3 2 1 0 1 1 2 4 6 9 10 10 10 8 6 8 8 6 4 3 3 6 6 3 5 9 6 2 2 3 5 5 4 5 6 4 4 5 8 10 12 12 11 11 12 11 12 14 15 15 16 17 18 18 18 17 17 17 17 17 17 18 18 17 16 15 15 14
16 17 16 14 11 11 12 12 10 9 8 8 7 6 7 7 5 3 3 3 2 1 1 1 3 4 6 8 7 7 6 5 6 7 6 5 4 2 5 5 4 6 9 6 3 4 4 5 5 4 6 7 5 4 7 11 12 12 11 11 12 12 12 13 15 16 16 17 18 19 20 20 20 19 18 17 17 17 17 17 17 16 15 14 13
17 19 17 14 12 12 12 12 11 10 10 8 7 6 7 7 5 4 5 4 3 1 1 1 2 3 5 6 5 5 5 4 5 6 7 6 5 4 4 4 3 5 7 7 5 5 4 5 5 5 6 7 7 8 10 12 12 11 11 11 12 12 12 14 16 17 17 18 20 21 22 22 22 21 19 18 17 16 16 16 16 16 16 15 14
18 20 17 14 13 12 11 12 11 10 10 9 8 7 7 7 6 6 6 5 4 3 2 1 1 1 3 4 4 4 4 4 4 6 7 5 5 4 4 4 4 4 6 7 7 5 5 7 6 4 4 6 9 11 11 12 13 14 13 13 13 13 13 15 18 19 19 20 22 23 23 23 22 22 20 19 18 16 16 16 16 16 17 16 15
19 18 16 15 14 13 12 12 11 10 10 9 9 8 7 7 7 7 6 5 5 5 4 3 3 3 3 4 5 4 4 4 4 5 6 5 4 3 3 4 3 5 6 6 7 5 6 9 7 4 3 5 10 11 10 11 13 15 14 13 13 13 13 16 17 19 21 22 22 22 23 23 22 21 19 18 18 17 17 17 16 16 17 16 15
18 18 16 15 15 14 14 13 12 12 11 11 10 9 8 8 8 7 6 5 5 6 6 6 5 5 5 4 4 4 5 5 5 6 6 5 4 3 3 3 1 2 4 4 5 4 6 10 8 6 7 9 12 12 10 10 12 15 15 14 13 13 14 16 17 19 20 20 20 22 23 23 21 19 18 17 17 17 18 18 17 16 16 17 16
18 18 17 16 16 16 16 15 14 13 13 12 12 10 9 8 8 9 8 7 6 6 6 7 6 7 6 5 4 4 5 5 4 4 4 3 4 4 4 3 1 1 1 2 3 3 5 10 7 8 12 12 11 11 9 10 12 13 14 15 14 14 16 18 17 17 19 19 19 21 23 22 19 18 17 18 18 18 19 20 20 18 17 17 17
17 17 17 17 17 16 16 16 15 15 14 13 12 11 10 9 9 9 8 7 7 7 8 8 7 7 7 5 4 4 4 5 3 2 2 2 4 5 4 3 3 3 4 3 3 3 6 9 9 11 14 14 11 10 10 11 12 13 14 14 14 15 17 17 16 16 18 19 19 21 22 21 20 19 19 18 19 20 21 22 22 21 19 18 18
18 17 17 18 18 17 17 16 16 15 15 14 13 12 11 11 10 9 9 8 8 8 9 9 8 7 7 5 4 4 4 5 4 3 3 2 4 6 6 6 6 6 5 5 2 3 7 10 11 12 14 14 12 11 11 11 12 13 13 13 14 15 17 18 17 18 17 16 17 20 21 21 23 23 22 21 21 21 21 20 20 21 21 20 19
19 18 18 19 19 18 17 16 16 16 15 14 13 12 12 12 12 11 10 9 9 9 9 8 7 7 6 5 4 5 5 6 6 6 7 5 5 6 8 9 8 7 7 6 6 7 10 11 11 12 12 13 12 12 12 12 12 12 12 14 15 16 17 18 18 18 17 15 16 19 20 22 24 23 21 22 21 19 19 19 18 18 20 20 20
20 19 19 19 19 18 17 17 17 16 15 14 13 13 12 13 12 12 11 11 10 9 9 9 8 6 6 6 6 5 5 7 9 9 9 8 8 7 9 10 9 8 8 8 8 9 11 10 10 12 12 12 13 13 13 15 14 14 14 16 17 18 19 19 18 19 19 17 17 18 20 22 22 20 20 21 20 20 21 22 20 19 21 21 20
22 21 20 20 19 19 18 17 17 16 15 15 14 14 14 13 13 12 11 11 12 10 9 9 9 7 7 8 7 6 5 7 9 8 8 8 7 7 8 8 8 7 7 8 8 8 10 11 11 12 11 13 14 14 15 17 17 17 18 19 19 19 19 18 17 16 16 14 15 17 19 20 21 21 21 21 21 23 25 24 21 21 22 21 20
21 21 21 20 20 20 19 18 18 17 16 15 15 15 15 14 14 13 12 12 12 12 11 10 9 8 8 8 8 7 7 8 8 7 8 9 8 7 6 5 7 7 7 9 9 9 10 12 12 13 14 15 15 15 16 18 18 20 21 21 19 18 15 13 13 14 15 14 14 16 19 22 24 24 22 22 22 24 24 23 21 21 19 19 19
21 21 20 21 20 20 20 20 19 19 18 17 17 17 17 16 14 13 12 12 12 12 12 12 10 8 8 8 8 7 7 8 9 9 9 8 7 8 7 7 8 8 8 9 10 10 10 11 13 14 15 16 16 16 18 19 19 20 20 18 15 13 12 12 14 17 17 16 16 19 22 25 27 27 25 23 22 22 21 20 19 18 17 17 19
22 21 20 20 21 20 20 19 19 19 18 18 18 18 17 16 14 13 13 12 12 12 13 13 12 10 9 10 9 8 8 9 9 9 9 7 7 9 9 9 9 9 9 9 9 10 11 13 14 15 15 15 16 18 18 18 19 19 18 15 13 13 15 17 19 20 19 18 19 23 26 28 29 28 25 21 20 20 19 19 19 17 16 16 17
23 23 21 20 20 20 19 18 18 19 19 18 17 16 16 16 15 14 14 14 14 13 13 13 13 13 12 12 11 10 9 10 10 9 9 9 10 10 10 10 9 8 8 9 10 11 11 11 12 13 14 15 18 20 17 17 18 18 16 16 17 17 20 22 22 21 20 21 23 25 27 29 28 24 21 19 20 20 20 21 20 18 16 16 15
25 24 24 22 21 21 20 19 19 18 18 18 17 16 16 15 16 16 15 15 15 14 13 13 13 13 12 12 12 11 11 12 12 11 11 11 11 11 11 10 10 10 9 9 9 9 9 9 10 13 15 17 18 19 18 17 17 16 15 18 21 22 23 24 23 22 21 23 25 27 28 27 24 20 19 19 20 20 21 21 19 18 18 17 16
29 27 26 24 23 23 22 21 20 19 19 19 19 18 17 16 16 16 16 15 14 14 13 13 12 12 12 13 13 13 13 13 13 13 13 12 13 13 13 12 11 11 11 10 9 9 9 11 13 14 16 18 19 19 18 18 17 16 16 17 20 23 25 25 24 22 22 23 26 28 28 26 23 20 19 19 19 19 19 19 19 21 21 19 17
31 30 28 26 25 25 24 23 22 21 20 20 20 19 18 18 17 17 17 15 14 14 14 13 13 13 14 14 14 14 14 13 13 13 13 13 13 13 14 14 13 12 12 12 11 11 12 13 15 15 16 18 20 19 19 19 18 17 17 17 18 22 25 26 25 22 19 21 26 28 27 25 22 21 20 19 17 17 18 18 20 23 23 21 18
31 30 28 27 27 26 25 24 23 21 20 21 21 21 19 19 18 18 17 17 17 16 15 14 14 14 14 13 13 12 11 11 12 13 14 14 15 15 15 15 15 14 13 13 13 14 14 14 15 16 15 17 20 20 20 21 20 18 18 17 17 20 23 23 24 22 19 21 25 27 26 23 20 21 21 18 17 19 20 20 20 20 20 19 17
31 31 29 27 27 25 24 23 23 22 21 20 20 21 20 19 19 18 18 18 18 17 16 15 14 13 13 13 13 12 12 12 12 13 14 15 15 15 14 14 15 16 16 15 14 15 14 14 15 15 14 17 20 21 21 21 20 18 18 17 17 20 19 16 17 21 21 22 23 24 25 22 20 21 20 18 20 23 23 21 19 17 17 17 16
27 28 27 26 26 25 23 23 24 24 22 20 20 20 19 18 18 19 19 18 18 18 18 17 15 13 13 13 13 14 14 13 11 10 11 11 12 12 12 11 12 15 17 17 15 14 13 13 14 15 15 17 19 21 21 21 20 19 18 19 19 19 16 14 14 19 22 22 20 21 23 23 20 19 18 19 22 25 24 21 17 15 16 16 16
22 24 25 25 24 23 23 23 23 24 23 22 21 20 19 18 18 18 19 19 19 19 18 17 16 15 14 12 11 11 11 11 12 12 13 12 11 11 11 10 10 12 15 16 15 14 14 14 16 16 15 16 18 19 18 18 19 19 20 21 20 17 16 15 16 19 20 18 17 19 22 22 20 18 19 21 22 24 23 19 16 15 17 17 15
14 14 15 18 21 22 23 22 21 21 21 21 21 20 20 19 19 17 17 19 20 20 19 18 18 17 14 11 9 7 7 8 11 12 11 10 9 10 9 9 9 10 12 14 14 13 12 12 13 13 11 11 13 14 13 13 14 16 17 18 17 16 16 16 16 17 16 14 16 17 18 20 20 19 21 22 22 23 21 16 15 18 19 17 14
10 6 4 6 10 13 17 20 21 20 20 20 20 20 21 21 21 19 18 17 18 20 19 18 17 15 13 11 9 7 6 7 8 8 8 8 9 9 9 8 8 7 7 8 8 7 7 6 6 7 6 6 8 9 10 12 13 13 13 14 15 15 15 15 14 14 14 15 15 12 12 18 21 20 22 23 23 21 17 15 18 21 19 16 15
14 15 13 11 10 9 11 15 18 19 20 19 19 20 21 20 21 22 21 20 19 18 18 16 15 14 13 11 10 9 8 8 8 8 8 8 9 9 10 9 7 6 5 6 7 6 6 5 4 5 6 7 9 9 11 12 12 12 11 12 12 12 13 14 13 14 16 15 12 10 13 18 21 21 21 22 22 19 15 16 20 21 18 17 18
15 17 17 16 16 16 15 15 16 17 17 17 17 18 19 19 20 21 22 22 21 19 19 17 15 13 12 11 11 10 9 9 9 8 8 8 8 9 9 8 8 7 7 7 8 8 7 7 7 8 10 11 11 10 9 9 10 10 10 11 10 10 11 11 10 12 15 13 10 12 15 18 20 21 21 22 21 16 13 17 21 19 18 19 21
15 16 18 18 16 16 17 17 16 16 16 16 16 17 18 19 20 20 21 22 20 19 21 20 17 14 12 11 10 10 10 10 10 9 8 8 8 8 9 8 8 8 8 8 9 9 9 10 10 10 9 8 7 7 7 8 8 8 8 9 9 9 10 10 10 13 14 11 11 14 16 18 20 20 20 21 19 14 14 18 20 19 19 22 23
15 16 19 19 19 19 19 17 16 16 16 16 18 19 18 19 19 18 18 20 19 19 22 21 18 15 13 11 11 10 11 11 10 8 7 7 6 6 7 7 7 8 8 8 9 9 10 10 9 8 6 4 5 6 6 6 6 6 6 7 9 9 10 11 12 12 9 8 12 17 17 18 19 19 18 16 11 10 15 21 21 20 22 25 25
Wind_Direction
150 150 152 154 152 151 151 152 152 152 153 155 158 164 171 196 249 270 268 279 276 271 266 245 224 207 210 220 215 216 218 217 221 228 262 38 112 165 168 174 182 186 197 225 259 266 273 272 291 308 307 346 6 14 10 6 3 352 342 337 332 328 323 317 314 313 313 314 314 312 309 306 308 309 309 310 312 316 320 321 319 314 310 306 305
150 151 151 150 152 154 155 158 159 157 154 149 150 156 171 241 252 243 259 280 288 293 274 231 209 188 194 213 207 205 211 216 223 227 219 77 86 124 141 142 146 142 139 136 175 220 223 234 329 30 35 46 51 44 34 15 356 344 339 337 333 329 325 325 327 329 327 324 322 316 311 306 306 307 310 316 320 324 327 328 326 324 321 316 314
153 153 152 151 153 154 153 158 163 161 153 145 157 181 202 215 219 231 261 285 298 301 266 229 222 205 188 204 206 198 204 215 221 217 199 100 85 96 116 116 117 114 112 109 111 134 124 118 105 95 88 82 78 58 27 360 349 344 343 342 340 338 338 345 353 356 352 349 347 343 337 330 324 322 326 331 330 331 333 336 340 343 341 335 329
157 153 151 151 151 150 150 158 162 163 165 187 250 257 244 229 231 263 289 298 306 303 278 266 252 227 200 200 210 206 205 211 210 200 184 121 89 91 103 101 102 101 102 107 103 102 90 97 109 110 102 92 78 41 10 358 352 351 353 353 353 355 2 12 14 10 7 5 3 2 359 355 351 347 345 344 343 343 345 350 356 358 358 352 344
160 154 153 153 155 157 158 160 161 159 161 213 267 264 255 260 283 295 305 311 314 312 296 300 261 231 214 206 207 206 213 214 203 193 173 134 101 98 104 95 88 83 85 96 101 100 95 109 119 116 109 90 60 33 16 8 5 4 8 8 11 14 19 22 18 12 7 3 2 1 1 1 1 359 355 354 353 355 356 358 0 1 1 357 351
164 159 159 162 164 170 170 169 169 159 145 143 285 284 282 290 304 303 306 317 322 325 309 289 236 224 223 220 212 208 219 223 209 199 175 142 119 115 113 93 78 76 76 84 94 98 97 110 120 115 103 73 47 36 28 24 21 19 20 20 20 19 19 18 11 5 358 354 355 354 355 358 3 3 359 359 359 359 358 356 356 356 355 353 350
167 165 165 169 170 171 170 169 168 161 165 206 256 255 253 268 295 300 302 316 326 339 330 289 201 206 217 220 216 212 219 226 219 207 188 159 144 146 141 113 99 91 82 85 91 93 97 108 112 103 83 65 51 45 39 35 29 21 17 15 10 5 3 3 359 354 347 343 343 343 346 349 355 359 357 358 357 354 350 350 349 349 349 348 347
176 185 183 174 168 164 161 165 168 169 190 219 234 227 237 256 282 304 313 327 341 3 8 320 200 198 202 206 209 211 218 224 221 211 199 186 176 189 197 162 136 113 90 88 90 93 102 107 103 93 81 73 64 58 50 43 36 18 359 342 338 338 341 342 342 341 337 333 331 333 336 340 344 346 347 350 349 347 343 343 342 342 344 345 345
194 207 205 189 176 169 166 170 175 186 205 214 218 221 239 256 278 309 323 337 350 10 23 14 215 192 189 194 204 210 215 216 214 214 211 209 205 207 215 195 176 156 124 105 101 101 101 98 98 96 87 79 71 61 48 39 34 22 360 334 321 319 323 325 327 330 329 326 323 324 327 331 336 337 337 339 338 339 338 337 337 336 339 341 342
190 196 202 195 183 178 174 175 190 204 207 202 200 211 230 259 286 297 318 331 344 1 8 4 270 199 190 187 182 184 192 196 209 223 221 220 219 211 211 210 204 188 163 145 133 127 113 87 102 120 83 38 39 35 28 18 14 16 7 350 337 325 321 320 321 324 326 325 321 319 321 325 329 330 331 332 330 331 332 333 333 332 334 338 339
181 188 192 182 177 180 181 186 203 203 201 199 189 195 205 247 296 291 308 317 334 352 354 337 245 207 196 197 195 177 186 200 223 230 226 227 227 222 221 219 216 206 190 177 174 179 193 207 227 244 270 284 293 309 321 334 337 344 349 344 344 340 333 327 322 323 325 325 322 320 320 322 325 326 327 328 327 327 327 328 328 329 330 334 337
172 173 178 178 177 182 186 190 195 192 195 192 178 175 179 159 2 339 334 332 350 3 2 350 206 195 195 201 198 175 193 215 222 222 228 233 231 232 240 238 232 222 204 196 204 217 224 227 234 235 249 273 280 287 294 306 310 312 318 319 327 334 334 332 327 325 324 324 321 319 319 321 323 323 324 324 324 325 325 326 325 324 326 330 334
162 153 167 177 180 184 190 187 184 186 187 182 172 163 151 96 52 15 2 356 3 20 34 58 151 182 196 199 194 188 208 224 224 222 230 234 234 239 248 246 240 235 220 212 216 228 237 240 240 233 239 260 270 277 284 294 298 299 303 305 310 318 322 324 324 324 325 324 321 317 315 316 318 318 320 321 321 322 323 324 324 323 323 326 331
161 157 167 175 183 188 189 181 175 174 176 178 169 150 123 75 47 28 15 3 6 25 43 75 128 155 178 202 212 224 236 240 243 246 245 247 248 248 247 243 238 235 227 222 223 234 246 250 248 241 243 252 251 264 276 284 292 293 295 297 300 306 313 317 317 320 325 327 323 319 315 313 313 314 314 315 317 319 320 321 322 322 322 323 328
169 170 176 183 190 189 181 178 172 170 182 184 170 140 112 80 53 22 11 10 20 39 47 47 89 123 133 130 270 236 268 261 254 258 256 256 256 247 240 236 234 232 228 227 224 231 248 252 256 260 260 260 257 264 273 279 289 292 291 294 295 299 308 314 315 318 324 328 326 323 320 316 313 312 312 312 313 315 316 317 318 320 321 320 325
175 176 183 188 190 185 179 177 177 180 182 178 173 144 109 77 55 23 4 9 22 39 51 52 46 102 139 153 129 106 326 264 258 262 254 250 249 243 236 233 233 228 223 227 226 232 250 253 259 269 271 272 269 267 274 283 292 294 293 297 299 300 306 315 318 321 327 330 329 327 324 321 317 315 314 312 312 313 313 315 316 317 319 318 321
179 177 181 188 189 184 179 175 175 179 173 166 173 147 110 65 46 23 4 7 11 27 47 58 47 31 56 144 66 35 250 263 278 274 255 253 250 243 239 237 237 230 222 224 228 235 255 260 260 263 266 278 279 273 280 293 298 296 296 306 311 307 310 320 323 324 330 332 331 330 327 323 320 317 317 316 313 313 313 315 316 316 318 317 318
186 181 182 190 194 189 186 185 175 169 168 167 169 151 122 88 55 20 10 11 9 28 45 56 62 47 44 74 59 33 266 275 330 300 7 41 297 234 235 235 232 229 226 227 230 236 255 266 266 264 264 274 284 281 284 297 306 305 307 318 321 314 317 326 326 327 332 334 332 331 329 328 326 323 322 321 317 316 315 317 318 318 318 316 314
190 186 186 195 201 196 193 197 189 173 168 167 167 160 141 124 122 36 22 27 27 43 42 41 50 45 45 51 40 36 28 23 51 308 340 31 39 130 210 219 222 228 231 232 233 239 255 266 269 271 271 275 283 286 286 293 310 321 324 329 329 324 327 329 328 329 332 335 334 333 334 335 335 333 330 329 325 322 321 321 321 320 319 318 314
188 190 194 201 204 200 196 197 194 184 176 177 180 180 179 182 182 189 18 20 35 54 44 32 29 26 34 38 29 35 44 45 37 20 134 22 8 49 138 182 208 227 234 237 240 247 256 261 268 280 284 282 280 284 288 292 310 329 335 337 339 338 338 334 330 330 332 336 336 335 338 341 342 341 337 333 330 327 325 323 323 322 320 321 319
191 198 203 208 209 205 199 195 191 186 186 191 192 191 198 203 206 233 17 3 25 55 45 29 26 25 27 26 22 29 35 37 38 48 76 64 341 352 37 82 134 196 207 223 239 247 249 252 276 299 298 290 280 281 285 289 307 325 332 337 344 345 343 338 335 334 334 335 336 336 338 339 341 343 340 335 331 329 327 326 325 325 321 321 322
199 205 206 209 214 213 204 198 194 189 189 195 196 197 202 208 214 207 148 168 24 46 30 19 23 31 32 26 24 27 21 21 33 45 55 49 36 353 2 25 38 44 47 30 305 289 249 272 315 319 320 319 293 280 282 292 308 320 329 339 344 341 339 342 342 340 336 334 333 335 336 335 335 341 341 338 336 334 333 331 330 330 326 323 321
206 208 205 206 214 213 206 202 200 197 194 194 197 206 213 216 219 204 194 238 334 3 323 9 20 33 36 26 19 23 26 25 28 40 53 49 46 7 359 15 25 22 26 27 18 7 320 304 317 329 336 334 318 293 310 326 328 332 340 347 345 338 333 335 338 338 336 332 332 334 335 332 330 334 338 339 340 340 339 338 336 335 333 328 323
209 207 204 206 212 209 205 204 203 205 206 202 201 211 221 222 222 224 237 249 251 284 293 334 14 30 31 21 11 9 19 30 30 34 39 46 58 30 3 15 18 15 26 39 23 356 342 325 324 336 342 341 339 342 343 341 341 342 343 344 343 338 332 331 333 336 336 333 332 333 333 331 328 327 331 334 339 343 344 344 341 340 339 336 330
206 204 204 208 214 211 209 207 204 207 209 212 217 221 226 226 227 237 242 245 242 252 290 325 18 23 18 17 17 14 18 23 21 18 14 18 34 36 24 18 5 2 17 27 13 1 359 343 323 316 345 6 7 356 349 345 342 339 336 334 335 334 332 333 336 339 339 335 333 333 332 328 324 322 323 326 333 341 345 345 343 342 342 342 339
202 203 207 213 216 214 214 213 209 212 216 222 230 228 227 231 233 233 236 242 249 265 286 284 263 336 355 358 358 13 27 16 3 4 1 5 14 16 16 8 360 360 6 7 4 5 0 352 346 336 353 16 7 354 349 343 337 334 329 327 331 334 331 331 336 340 339 336 334 334 334 330 324 321 318 319 325 335 341 342 341 341 343 344 343
205 206 211 216 217 215 219 220 218 221 225 229 231 227 225 230 229 225 231 243 251 263 275 280 276 277 301 325 336 353 357 338 331 336 341 354 357 355 17 23 6 351 352 352 352 356 352 349 357 2 345 344 343 341 340 340 341 339 331 326 333 337 333 331 334 337 336 336 337 338 339 338 333 328 323 318 319 326 333 336 337 338 341 344 344
210 210 213 218 218 218 224 228 226 227 229 230 231 229 227 228 228 226 230 242 250 257 266 278 281 272 276 300 323 342 343 331 323 320 318 328 336 331 355 20 36 337 340 339 338 344 349 349 354 349 335 325 324 327 330 333 340 341 337 336 337 336 335 333 332 334 338 341 343 345 346 344 343 340 335 327 321 321 327 330 332 334 336 340 342
215 214 216 220 221 223 226 229 230 231 230 231 234 235 230 230 232 234 238 247 252 255 264 274 275 271 271 282 309 333 345 341 339 338 321 321 327 317 328 340 246 225 265 314 306 283 326 342 341 332 333 328 319 320 324 328 334 335 335 335 334 331 334 335 332 334 340 343 345 349 350 350 352 349 342 335 328 323 324 328 328 328 329 333 337
215 215 217 220 223 225 227 229 232 233 232 233 237 238 233 230 234 240 243 249 256 257 262 271 276 276 268 272 298 317 328 327 334 356 340 318 316 307 306 307 274 248 219 224 278 276 304 327 329 326 330 331 326 324 326 329 330 329 328 328 328 329 332 336 336 334 338 344 348 351 352 354 354 348 343 340 335 328 325 327 328 326 324 324 328
214 214 216 218 222 225 228 231 232 233 233 233 235 236 231 229 233 243 246 246 256 261 264 273 281 278 265 267 294 305 306 304 298 300 301 300 308 304 293 281 279 277 254 230 236 275 292 310 321 326 330 330 329 329 327 326 325 325 324 324 327 329 330 334 337 340 345 351 353 353 351 348 344 342 345 346 342 338 333 330 331 330 327 323 321
214 215 216 215 218 222 225 227 228 229 231 231 233 232 229 231 235 241 244 242 251 261 265 274 281 274 261 260 290 306 291 286 286 279 276 273 276 294 300 289 277 275 267 243 230 265 289 302 315 327 335 333 333 335 333 330 330 327 321 319 323 326 328 330 333 339 344 342 342 345 342 339 339 341 346 349 349 348 345 341 340 338 336 332 327
217 217 217 216 217 219 219 221 223 226 229 230 233 232 233 240 241 242 243 238 242 254 262 271 274 267 258 258 278 294 279 281 290 283 276 272 266 284 306 294 273 269 269 255 245 267 292 306 315 326 336 338 338 343 343 340 338 333 327 325 327 329 330 330 327 329 333 332 332 335 336 340 345 345 343 344 346 344 343 344 343 339 338 339 336
217 218 219 220 221 220 219 220 221 224 227 229 232 234 239 245 245 245 246 241 242 251 260 266 268 265 263 263 270 279 273 279 288 284 284 284 274 291 310 290 269 271 271 264 258 266 289 305 315 325 337 340 336 341 344 340 339 338 334 333 334 334 334 335 332 332 338 338 332 334 340 347 351 347 341 338 336 334 334 337 337 334 334 338 338
217 219 221 223 224 223 223 224 223 224 228 230 231 234 238 243 246 246 248 246 247 252 258 263 267 265 263 262 264 266 265 271 282 288 296 296 284 284 297 279 268 279 278 271 269 272 284 301 313 321 329 333 332 335 337 334 335 337 338 338 340 342 345 349 348 347 347 344 339 341 346 349 348 345 340 334 330 328 329 331 332 331 334 337 336
220 222 222 223 224 225 226 227 226 225 227 231 233 234 235 239 243 246 248 249 251 254 259 265 266 261 254 253 256 262 261 264 274 285 293 292 275 268 275 274 273 281 283 276 276 277 279 290 305 314 322 326 328 331 332 331 334 340 343 347 353 357 359 357 349 346 345 343 344 346 347 348 346 342 339 336 333 333 335 338 338 337 340 340 338
223 224 222 221 221 223 225 226 225 223 226 230 234 235 236 237 241 247 251 252 254 255 260 267 268 263 259 257 258 263 266 267 272 279 282 276 268 272 278 276 275 281 285 280 279 279 276 284 299 312 320 323 323 324 328 332 335 341 347 352 354 351 346 341 339 340 342 341 343 346 346 347 345 343 343 345 346 347 349 351 348 345 344 343 344
224 225 222 220 220 220 222 224 224 224 227 230 233 233 234 236 238 244 250 254 255 255 258 264 269 271 271 268 263 262 264 266 268 272 272 268 270 276 276 273 273 278 283 282 279 279 280 286 297 307 314 318 319 319 325 331 332 336 344 342 338 339 339 338 336 338 341 341 342 345 347 346 346 347 352 355 356 357 358 359 355 348 344 342 345
222 222 221 222 222 221 221 224 224 225 226 228 230 232 233 236 237 241 247 251 252 252 254 260 265 269 271 268 266 268 268 266 267 267 264 263 267 273 275 275 273 271 274 276 272 271 277 285 293 300 306 310 311 312 318 325 327 331 338 336 332 334 337 337 335 336 339 339 339 342 346 346 346 351 356 358 359 1 2 4 3 359 353 347 344
219 221 222 224 224 223 224 226 225 226 228 229 230 233 234 234 237 241 245 248 248 248 252 256 258 259 262 264 267 271 271 270 270 269 265 262 262 265 269 273 269 264 265 266 263 265 272 282 289 294 299 302 304 308 315 320 323 327 332 332 327 329 332 332 331 333 336 337 338 340 345 347 346 350 357 0 2 3 4 7 6 2 358 352 346
220 221 223 224 222 222 225 228 228 229 230 230 230 232 232 231 233 237 241 245 246 249 254 256 255 257 262 265 265 266 268 271 272 272 270 267 265 266 269 273 270 261 258 259 263 272 279 283 288 292 295 298 302 306 312 316 319 321 323 324 321 323 327 326 324 328 334 337 336 337 343 348 348 350 356 1 3 3 2 360 355 353 353 350 344
222 220 221 223 222 222 225 228 230 231 230 230 231 232 232 231 231 231 235 241 243 247 252 252 252 258 262 263 262 261 263 266 268 269 269 269 271 274 275 275 272 263 256 258 268 278 283 282 285 289 290 293 300 306 308 311 315 314 316 318 318 321 324 322 321 324 332 339 336 334 339 347 349 347 350 356 357 354 351 347 346 349 351 352 352
221 218 218 219 220 222 226 229 230 230 230 231 231 231 232 233 232 231 232 238 242 244 244 245 250 255 256 258 260 260 260 263 265 267 268 268 268 271 276 279 274 264 257 263 275 281 281 281 284 288 286 289 301 308 309 312 315 314 311 313 315 318 318 315 314 319 329 339 336 330 334 342 347 345 346 350 348 345 346 344 345 350 351 352 357
215 215 217 219 221 222 225 228 230 231 231 232 231 231 233 234 233 233 233 237 242 244 244 245 246 247 251 259 265 267 267 265 262 264 269 269 264 267 277 282 276 264 259 266 276 280 280 282 286 289 291 294 303 310 314 316 316 312 309 310 311 311 308 304 305 313 326 337 335 327 330 337 343 343 342 344 343 343 347 348 352 356 350 346 348
211 214 216 217 218 219 221 222 224 226 228 229 230 232 233 232 231 235 237 237 238 242 245 243 243 247 254 261 266 270 267 257 254 262 270 270 267 272 280 283 277 266 262 267 272 274 279 283 286 292 300 305 306 311 317 319 315 311 310 311 311 309 306 307 309 315 328 339 337 328 326 331 339 340 337 339 343 346 350 354 359 359 350 345 344
202 206 212 214 212 212 215 216 218 219 221 223 227 230 230 229 230 234 238 238 239 242 243 244 248 251 247 245 252 260 253 246 253 261 265 266 269 276 281 281 278 270 265 268 269 271 278 284 286 293 307 315 314 318 326 326 321 318 315 313 315 313 311 313 315 322 334 343 339 329 321 326 338 338 333 338 345 349 356 4 4 358 354 355 357
197 198 222 232 224 220 220 221 220 221 222 223 227 230 231 230 232 234 237 240 243 242 241 244 246 238 226 226 238 243 234 234 243 249 255 264 272 279 283 283 281 271 261 258 251 252 269 281 288 298 311 322 324 327 331 328 325 324 319 314 317 316 316 320 325 332 340 341 338 332 317 326 337 335 332 339 344 349 3 11 2 359 1 6 9
206 212 223 230 233 238 238 235 230 226 228 229 229 232 233 231 230 233 238 245 249 241 231 231 227 217 216 225 231 232 230 229 233 239 249 262 272 279 283 282 277 262 244 239 240 251 272 274 273 291 305 312 314 314 317 317 317 318 316 315 318 321 325 332 335 339 343 343 347 344 325 326 336 335 332 339 344 350 5 7 2 5 8 9 9
211 206 216 221 221 226 233 240 239 233 232 235 235 235 235 232 231 234 237 244 250 239 222 218 218 215 220 229 231 236 239 235 237 245 252 262 270 273 273 267 258 247 242 249 256 262 266 262 269 290 303 307 307 304 307 313 314 318 320 322 326 330 333 335 331 333 341 348 354 347 329 326 335 338 335 340 346 352 359 1 5 12 13 9 8
240 227 229 230 229 232 236 240 244 242 240 240 240 240 239 238 238 239 239 243 246 234 217 211 213 213 216 226 234 241 245 245 249 255 260 267 270 267 263 258 251 247 250 258 263 262 261 268 283 297 304 311 316 315 319 323 322 324 328 333 337 334 332 333 329 330 338 348 355 349 334 327 336 342 338 338 343 349 354 357 5 13 12 8 6
258 250 242 235 233 237 237 235 237 241 243 246 248 247 244 243 243 242 243 242 234 218 206 201 200 202 210 225 237 246 252 253 252 251 252 254 254 254 256 256 257 258 259 267 277 281 282 287 297 305 317 341 347 342 345 351 355 359 2 1 356 346 341 344 342 337 331 331 346 348 336 328 334 342 343 340 334 337 347 352 359 6 6 4 4